When you browse on this site, cookies collect data to enhance your experience and personalize the content and advertising you see.
Visit our Privacy Policy to learn more. By continuing to use the site, you agree to this use of cookies and data.
  • In Czech Republic
  • List of Countries
  • For 7 days
  • Water Temperature
  • Weather Map
  • Weather Widgets
  • user-avatar
    Login

    Hourly Weather Bekren

    Today, 22 January, Wednesday

    Time Temperature Precipitation Wind Pressure Humidity
    00:00 -3°C° 0 mm 7 mps 733 mmHg 77%
    01:00 -3°C° 0 mm 7 mps 733 mmHg 78%
    02:00 -4°C° 0 mm 7 mps 733 mmHg 78%
    03:00 -4°C° 0 mm 6 mps 733 mmHg 81%
    04:00 -4°C° 0 mm 6 mps 732 mmHg 82%
    05:00 -4°C° 0 mm 6 mps 732 mmHg 82%
    06:00 -4°C° 0 mm 6 mps 731 mmHg 82%
    07:00 -4°C° 0 mm 6 mps 731 mmHg 84%
    08:00 -4°C° 0 mm 6 mps 731 mmHg 86%
    09:00 -4°C° 0 mm 6 mps 731 mmHg 87%
    10:00 -4°C° 0.2 mm 6 mps 730 mmHg 85%
    11:00 -4°C° 0.2 mm 5 mps 730 mmHg 82%
    12:00 -2°C° 0.2 mm 5 mps 730 mmHg 80%
    13:00 -2°C° 0.2 mm 5 mps 730 mmHg 78%
    14:00 -4°C° 0.2 mm 5 mps 730 mmHg 76%
    15:00 -4°C° 0.2 mm 5 mps 730 mmHg 74%
    16:00 -4°C° 0 mm 5 mps 730 mmHg 77%
    17:00 -4°C° 0 mm 4 mps 731 mmHg 81%
    18:00 -5°C° 0 mm 4 mps 731 mmHg 84%
    19:00 -6°C° 0 mm 5 mps 731 mmHg 84%
    20:00 -6°C° 0 mm 5 mps 732 mmHg 83%
    21:00 -6°C° 0 mm 5 mps 732 mmHg 83%
    22:00 -6°C° 0.1 mm 5 mps 733 mmHg 83%
    23:00 -6°C° 0.1 mm 6 mps 733 mmHg 83%

    Tomorrow, 23 January, Thursday

    Time Temperature Precipitation Wind Pressure Humidity
    00:00 -6°C° 0.1 mm 6 mps 733 mmHg 83%
    01:00 -8°C° 0.1 mm 6 mps 734 mmHg 83%
    02:00 -8°C° 0.1 mm 6 mps 735 mmHg 83%
    03:00 -9°C° 0.1 mm 6 mps 736 mmHg 83%
    04:00 -9°C° 0 mm 6 mps 736 mmHg 79%
    05:00 -11°C° 0 mm 7 mps 737 mmHg 74%
    06:00 -11°C° 0 mm 7 mps 737 mmHg 70%
    07:00 -11°C° 0 mm 6 mps 738 mmHg 69%
    08:00 -11°C° 0 mm 6 mps 738 mmHg 68%
    09:00 -11°C° 0 mm 6 mps 739 mmHg 68%
    10:00 -11°C° 0 mm 6 mps 739 mmHg 67%
    11:00 -11°C° 0 mm 6 mps 739 mmHg 66%
    12:00 -10°C° 0 mm 6 mps 740 mmHg 66%
    13:00 -10°C° 0 mm 6 mps 740 mmHg 64%
    14:00 -10°C° 0 mm 5 mps 740 mmHg 63%
    15:00 -10°C° 0 mm 5 mps 741 mmHg 62%
    16:00 -10°C° 0 mm 5 mps 741 mmHg 65%
    17:00 -10°C° 0 mm 5 mps 741 mmHg 68%
    18:00 -10°C° 0 mm 4 mps 742 mmHg 71%
    19:00 -10°C° 0 mm 4 mps 742 mmHg 72%
    20:00 -10°C° 0 mm 4 mps 743 mmHg 73%
    21:00 -10°C° 0 mm 4 mps 743 mmHg 74%
    22:00 -9°C° 0 mm 3 mps 743 mmHg 76%
    23:00 -10°C° 0 mm 3 mps 743 mmHg 78%

    Day after tomorrow, 24 January, Friday

    Time Temperature Precipitation Wind Pressure Humidity
    00:00 -10°C° 0 mm 3 mps 743 mmHg 79%
    01:00 -10°C° 0 mm 3 mps 743 mmHg 79%
    02:00 -9°C° 0 mm 3 mps 743 mmHg 78%
    03:00 -9°C° 0 mm 3 mps 743 mmHg 77%
    04:00 -9°C° 0 mm 3 mps 742 mmHg 79%
    05:00 -9°C° 0 mm 4 mps 741 mmHg 80%
    06:00 -9°C° 0 mm 4 mps 740 mmHg 81%
    07:00 -8°C° 0.2 mm 5 mps 739 mmHg 85%
    08:00 -7°C° 0.2 mm 5 mps 738 mmHg 90%
    09:00 -6°C° 0.2 mm 6 mps 738 mmHg 94%
    10:00 -5°C° 0.4 mm 6 mps 737 mmHg 93%
    11:00 -5°C° 0.4 mm 6 mps 736 mmHg 92%
    12:00 -4°C° 0.4 mm 6 mps 735 mmHg 91%
    13:00 -4°C° 0.1 mm 6 mps 735 mmHg 92%
    14:00 -3°C° 0.1 mm 6 mps 734 mmHg 94%
    15:00 -1°C° 0.1 mm 5 mps 734 mmHg 95%
    16:00 -1°C° 0.2 mm 5 mps 733 mmHg 95%
    17:00 -1°C° 0.2 mm 5 mps 733 mmHg 95%
    18:00 -1°C° 0.2 mm 5 mps 733 mmHg 95%
    19:00 -1°C° 0 mm 5 mps 733 mmHg 93%
    20:00 -2°C° 0 mm 4 mps 733 mmHg 91%
    21:00 -3°C° 0 mm 4 mps 733 mmHg 89%
    22:00 -3°C° 0 mm 4 mps 733 mmHg 89%
    23:00 -3°C° 0 mm 4 mps 733 mmHg 89%

    25 January, Saturday

    Time Temperature Precipitation Wind Pressure Humidity
    00:00 -3°C° 0 mm 4 mps 733 mmHg 88%
    01:00 -3°C° 0 mm 4 mps 733 mmHg 89%
    02:00 -3°C° 0 mm 4 mps 733 mmHg 89%
    03:00 -3°C° 0 mm 4 mps 733 mmHg 89%
    04:00 -3°C° 0 mm 4 mps 733 mmHg 88%
    05:00 -4°C° 0 mm 5 mps 733 mmHg 88%
    06:00 -4°C° 0 mm 5 mps 733 mmHg 87%
    07:00 -4°C° 0 mm 5 mps 732 mmHg 86%
    08:00 -4°C° 0 mm 5 mps 732 mmHg 85%
    09:00 -4°C° 0 mm 5 mps 732 mmHg 83%
    10:00 -2°C° 0 mm 5 mps 732 mmHg 82%
    11:00 -3°C° 0 mm 6 mps 731 mmHg 80%
    12:00 -3°C° 0 mm 6 mps 731 mmHg 79%
    13:00 -3°C° 0.3 mm 7 mps 731 mmHg 79%
    14:00 -3°C° 0.3 mm 7 mps 730 mmHg 79%
    15:00 -3°C° 0.3 mm 7 mps 730 mmHg 79%
    16:00 -4°C° 0 mm 6 mps 730 mmHg 79%
    17:00 -5°C° 0 mm 5 mps 730 mmHg 80%
    18:00 -4°C° 0 mm 4 mps 730 mmHg 81%
    19:00 -5°C° 0 mm 5 mps 731 mmHg 81%
    20:00 -5°C° 0 mm 6 mps 732 mmHg 82%
    21:00 -5°C° 0 mm 6 mps 732 mmHg 83%
    22:00 -5°C° 0.1 mm 6 mps 733 mmHg 84%
    23:00 -7°C° 0.1 mm 7 mps 734 mmHg 85%

    26 January, Sunday

    Time Temperature Precipitation Wind Pressure Humidity
    00:00 -7°C° 0.1 mm 7 mps 734 mmHg 86%
    01:00 -6°C° 0.1 mm 6 mps 735 mmHg 85%
    02:00 -6°C° 0.1 mm 6 mps 736 mmHg 83%
    03:00 -6°C° 0.1 mm 6 mps 737 mmHg 82%
    04:00 -8°C° 0 mm 6 mps 738 mmHg 83%
    05:00 -7°C° 0 mm 5 mps 739 mmHg 84%
    06:00 -7°C° 0 mm 5 mps 740 mmHg 85%
    07:00 -7°C° 0 mm 5 mps 741 mmHg 85%
    08:00 -7°C° 0 mm 5 mps 742 mmHg 85%
    09:00 -7°C° 0 mm 4 mps 743 mmHg 85%
    10:00 -7°C° 0 mm 5 mps 743 mmHg 83%
    11:00 -7°C° 0 mm 5 mps 744 mmHg 81%
    12:00 -6°C° 0 mm 5 mps 745 mmHg 79%
    13:00 -6°C° 0 mm 5 mps 745 mmHg 79%
    14:00 -5°C° 0 mm 4 mps 745 mmHg 79%
    15:00 -5°C° 0 mm 4 mps 746 mmHg 80%
    16:00 -5°C° 0 mm 4 mps 746 mmHg 82%
    17:00 -6°C° 0 mm 3 mps 746 mmHg 85%
    18:00 -7°C° 0 mm 3 mps 747 mmHg 87%
    19:00 -7°C° 0 mm 3 mps 747 mmHg 89%
    20:00 -6°C° 0 mm 2 mps 747 mmHg 90%
    21:00 -7°C° 0 mm 2 mps 748 mmHg 91%
    22:00 -4°C° 0 mm 1 mps 748 mmHg 91%
    23:00 -4°C° 0 mm 1 mps 748 mmHg 91%

    27 January, Monday

    Time Temperature Precipitation Wind Pressure Humidity
    00:00 -4°C° 0 mm 1 mps 748 mmHg 91%
    01:00 -4°C° 0 mm 1 mps 748 mmHg 91%
    02:00 -5°C° 0 mm 2 mps 748 mmHg 92%
    03:00 -6°C° 0 mm 3 mps 747 mmHg 92%
    04:00 -6°C° 0.2 mm 3 mps 747 mmHg 93%
    05:00 -5°C° 0.2 mm 3 mps 746 mmHg 94%
    06:00 -5°C° 0.2 mm 3 mps 746 mmHg 95%
    07:00 -5°C° 0.2 mm 4 mps 746 mmHg 95%
    08:00 -4°C° 0.2 mm 4 mps 745 mmHg 95%
    09:00 -4°C° 0.2 mm 4 mps 745 mmHg 96%
    10:00 -3°C° 0.1 mm 4 mps 745 mmHg 95%
    11:00 -2°C° 0.1 mm 4 mps 745 mmHg 95%
    12:00 -2°C° 0.1 mm 4 mps 745 mmHg 95%
    13:00 -1°C° 0 mm 4 mps 744 mmHg 96%
    14:00 -1°C° 0 mm 4 mps 744 mmHg 96%
    15:00 -1°C° 0 mm 4 mps 743 mmHg 97%
    16:00 -1°C° 0.1 mm 4 mps 743 mmHg 97%
    17:00 -1°C° 0.1 mm 4 mps 743 mmHg 97%
    18:00 -1°C° 0.1 mm 4 mps 743 mmHg 97%
    19:00 -1°C° 0.1 mm 4 mps 742 mmHg 97%
    20:00 -1°C° 0.1 mm 4 mps 742 mmHg 97%
    21:00 -2°C° 0.1 mm 4 mps 742 mmHg 97%
    22:00 -2°C° 0.2 mm 4 mps 741 mmHg 96%
    23:00 -2°C° 0.2 mm 4 mps 741 mmHg 96%
    Show more